This demonstration page uses our WeatherBlox Daily Observations layout. Learn more.

Left ArrowRight Arrow

41.86663, -103.66717

Hourly Observations for March 29, 2016

Temp ( °F °C ) Dew Point ( °F °C ) Humidity (%) Winds ( mph kmh ) Pressure ( in mb ) Visibility ( mi km ) Precip ( " mm )
12:53 am 00:53 Clear 49 9.4 31 -0.6 50 50 ESE 16 26 29.62 1003 10 16 N/A
1:53 am 01:53 Partly Cloudy 48 8.9 33 0.6 56 56 ESE 17 28 29.62 1003 10 16 N/A
2:53 am 02:53 Cloudy 47 8.3 32 undefined 56 56 ESE 13 20 29.60 1003 10 16 N/A
3:53 am 03:53 Cloudy 46 7.8 32 undefined 58 58 E 6 9 29.60 1002 10 16 N/A
4:53 am 04:53 Clear 43 6.1 32 undefined 65 65 NE 8 13 29.61 1003 10 16 N/A
5:53 am 05:53 Clear 40 4.4 31 -0.6 70 70 E 14 22 29.60 1003 10 16 N/A
6:53 am 06:53 Sunny 40 4.4 31 -0.6 70 70 ESE 10 17 29.63 1003 10 16 N/A
7:53 am 07:53 Sunny 41 5 31 -0.6 67 67 ESE 7 11 29.65 1004 10 16 N/A
8:53 am 08:53 Sunny 42 5.6 32 undefined 68 68 WSW 3 6 29.65 1004 10 16 N/A
9:53 am 09:53 Sunny 44 6.7 32 undefined 63 63 E 6 9 29.64 1004 10 16 N/A
10:53 am 10:53 Sunny 46 7.8 32 undefined 58 58 E 5 7 29.63 1003 10 16 N/A
11:53 am 11:53 Sunny 47 8.3 33 0.6 59 59 NNE 8 13 29.62 1003 10 16 N/A
12:53 pm 12:53 Sunny 50 10 34 1.1 54 54 NNE 9 15 29.61 1003 10 16 N/A
1:53 pm 13:53 Sunny 53 11.7 35 1.7 51 51 ENE 8 13 29.58 1002 10 16 N/A
2:53 pm 14:53 Sunny 54 12.2 36 2.2 51 51 VRB 5 7 29.56 1001 10 16 N/A
3:53 pm 15:53 Sunny 59 15 37 2.8 44 44 NNW 8 13 29.52 1000 10 16 N/A
4:53 pm 16:53 Mostly Cloudy 58 14.4 37 2.8 46 46 N N/A 29.53 1000 10 16 N/A
5:53 pm 17:53 Mostly Cloudy 58 14.4 38 3.3 48 48 NNE 9 15 29.55 1001 10 16 N/A
6:53 pm 18:53 Cloudy 53 11.7 36 2.2 52 52 N 18 30 29.57 1001 10 16 N/A
7:53 pm 19:53 Cloudy 50 10 35 1.7 57 57 N 18 30 29.56 1001 10 16 N/A
8:53 pm 20:53 Mostly Cloudy 48 8.9 34 1.1 58 58 N 20 31 29.60 1002 10 16 N/A
9:53 pm 21:53 Mostly Cloudy 48 8.9 34 1.1 58 58 NNE 25 41 29.56 1001 10 16 N/A
10:31 pm 22:31 Cloudy with Nearby Thunderstorms 47 8.3 34 1.1 61 61 NW 8 13 29.65 1004 10 16 N/A
10:47 pm 22:47 Cloudy with Thunderstorms 46 8 36 2 66 66 WSW 24 39 29.68 1005 10 16 N/A
10:53 pm 22:53 Cloudy with Strong Thunderstorms 44 6.7 35 1.7 71 71 WNW 15 24 29.65 1004 4 6 0.03 0.76
11:03 pm 23:03 Cloudy with Strong Thunderstorms 41 5 36 2 81 81 N 13 20 29.68 1005 3 5 N/A
11:22 pm 23:22 Cloudy with Light Rain 41 5 36 2 81 81 N 15 24 29.68 1005 9 14 N/A
11:53 pm 23:53 Cloudy 44 6.7 36 2.2 73 73 VRB 7 11 29.61 1003 10 16 0.15 3.81

Powered by AerisWeather